RH
29 27 35 37 31 41 76 85 91 85 85 86 91 93 95 83 80 66 54 54 58 61 60 61 60 61 72 76 79 84 89 93 89 91 93 94 91 90 90 91 88 91 89 89
29 36 26 26 28 39 82 90 95 86 84 82 93 91 92 86 89 79 62 55 58 65 69 67 62 61 71 75 80 87 88 93 87 88 92 93 93 92 88 93 90 88 89 89
32 26 22 24 56 68 86 81 93 83 88 88 89 92 93 90 90 83 77 60 58 64 72 69 69 66 71 73 80 85 90 89 89 90 93 96 95 96 94 94 93 90 86 87
27 19 19 23 24 63 84 69 73 90 90 94 89 95 97 88 93 91 80 69 56 57 65 68 69 70 70 70 76 83 89 90 89 93 90 90 91 92 95 95 95 92 80 87
22 24 23 20 19 52 59 69 82 82 91 94 95 96 90 94 94 86 82 77 53 54 62 68 66 66 65 66 76 80 90 92 92 92 90 92 92 89 94 94 91 91 87 83
23 21 21 23 48 48 66 77 83 86 94 97 90 89 95 95 85 79 72 76 66 51 60 65 60 64 66 70 77 81 89 92 93 91 90 90 90 92 95 95 93 94 93 90
26 27 65 62 75 66 78 84 96 93 97 91 92 92 82 78 87 79 80 77 70 55 62 66 62 67 70 79 79 82 87 92 93 91 90 89 89 91 91 92 90 93 95 95
36 30 69 61 74 81 86 71 86 74 92 89 92 93 79 58 60 65 58 66 70 65 58 64 60 67 71 74 79 81 88 89 93 91 91 91 90 89 92 92 95 95 96 94
36 30 25 56 59 58 77 80 71 87 92 90 91 80 67 68 75 78 75 74 76 73 68 64 62 65 77 78 78 82 88 89 92 90 92 92 91 91 92 92 93 95 94 91
41 39 26 24 56 60 66 59 71 89 88 88 85 85 84 77 74 82 79 74 73 75 74 66 66 69 78 81 84 84 86 87 87 91 89 88 90 91 93 93 93 94 95 94
46 34 28 32 46 65 45 66 63 71 84 87 84 71 68 64 63 79 66 63 59 65 75 73 69 73 78 81 86 89 91 90 92 92 94 93 93 92 91 93 95 93 92 92
48 40 45 32 27 32 38 53 50 62 51 86 78 68 72 59 55 57 59 58 62 58 65 75 73 84 88 87 88 89 92 91 91 93 94 94 94 94 94 93 92 93 94 90
38 44 48 36 40 42 43 57 57 43 56 76 61 50 65 66 70 70 74 74 70 67 74 87 87 86 92 90 89 91 93 92 94 94 95 97 97 97 97 95 94 94 94 92
40 50 42 48 50 46 60 65 73 33 38 42 52 37 78 72 77 85 88 84 81 83 88 91 91 91 94 96 96 96 95 95 96 96 96 98 98 96 92 93 96 94 96 96
43 44 51 39 52 56 66 68 72 73 84 36 62 81 95 96 95 84 88 87 87 87 89 93 95 96 95 96 95 96 97 97 98 97 96 96 96 95 96 98 97 96 96 96
65 50 64 64 49 51 55 61 69 76 88 88 92 94 88 90 94 97 93 86 87 88 82 81 91 91 95 94 95 97 97 96 96 97 96 96 96 95 98 99 99 98 98 98
66 73 60 61 62 51 64 65 70 74 73 82 94 89 76 96 95 97 97 90 93 96 98 99 96 95 96 97 97 97 97 97 98 97 98 99 99 98 99 98 99 99 99 98
58 78 81 74 67 76 62 65 59 66 72 89 87 79 91 95 97 96 92 96 98 98 99 99 99 99 100 99 99 99 98 99 99 99 99 98 98 98 98 97 96 96 97 99
71 80 84 77 81 72 66 63 60 64 66 80 87 81 90 91 92 98 96 96 98 98 98 99 98 99 99 99 99 98 99 99 99 99 99 99 98 98 98 98 98 99 99 93
78 81 73 86 80 81 70 58 56 58 81 75 91 81 90 94 96 99 96 95 96 95 94 97 97 98 98 99 99 99 99 99 99 99 99 99 98 98 99 99 99 99 94 94
76 88 79 91 84 73 62 59 57 75 69 85 84 91 94 94 94 94 96 98 96 91 89 91 95 98 99 98 98 99 98 99 99 99 99 99 99 99 99 99 99 99 97 86
76 84 90 91 82 64 62 62 65 61 86 83 92 94 96 95 95 98 96 98 93 89 85 84 90 96 96 97 96 98 99 99 99 98 98 99 99 99 99 98 99 99 98 96
82 72 84 79 80 66 67 66 64 77 83 82 88 86 92 90 92 93 97 96 91 89 88 81 80 84 83 88 92 96 98 97 97 97 98 99 99 98 96 91 90 93 89 86
75 81 83 69 70 70 71 67 68 72 78 82 81 81 83 93 95 97 95 94 91 86 87 81 80 80 84 79 78 79 77 77 72 80 86 89 94 93 85 90 79 96 81 86
67 69 77 74 73 72 65 61 59 66 74 85 79 77 88 93 93 92 92 90 90 88 84 78 80 81 88 87 87 83 81 78 76 78 75 71 63 65 66 69 73 60 63 68
60 63 71 70 66 64 56 52 61 69 76 83 79 89 91 92 91 90 91 91 88 86 87 89 89 87 86 83 84 84 83 82 80 81 81 82 74 68 68 66 62 70 71 77
Wind_Speed
2 5 5 2 5 5 4 3 5 3 5 4 2 1 5 7 4 6 9 11 14 17 12 11 10 8 7 6 6 6 7 6 7 3 3 2 3 2 1 0 3 4 3 3
6 1 5 3 3 2 5 7 2 1 4 2 4 3 1 6 3 4 4 13 15 11 10 11 12 11 9 8 7 6 7 7 6 4 3 3 3 2 2 2 2 4 3 3
6 3 4 3 2 4 4 6 5 3 5 3 3 4 5 4 5 6 7 8 13 17 15 14 13 13 10 11 10 8 8 8 6 5 4 3 4 3 2 1 1 2 3 3
3 3 3 3 4 5 3 7 9 10 5 2 3 2 4 9 6 7 11 9 15 16 15 16 14 13 12 12 8 7 7 7 5 6 5 6 4 4 3 3 3 3 2 4
6 2 3 4 7 9 5 11 7 2 4 3 4 2 3 11 13 15 16 9 16 16 19 18 18 16 13 10 10 9 7 6 5 6 6 5 4 2 1 2 3 3 2 2
7 3 5 6 2 9 11 8 8 5 3 3 7 5 6 12 23 14 13 11 12 17 18 18 16 11 10 7 8 8 9 6 6 6 6 7 8 6 4 3 3 2 1 2
5 3 1 5 9 7 6 7 3 2 0 6 4 4 10 17 15 20 19 13 12 15 15 14 14 13 11 12 11 9 9 8 7 6 6 6 7 6 6 5 4 4 2 2
1 6 8 5 6 8 4 6 7 6 5 3 1 7 8 9 17 16 19 15 12 12 14 15 17 15 14 14 13 12 11 10 9 8 7 5 5 3 4 4 4 3 3 3
1 5 1 5 5 10 6 5 5 6 2 1 4 6 6 2 8 11 14 15 11 12 13 15 13 13 13 13 14 15 13 9 8 7 5 5 5 5 5 5 3 3 3 2
2 4 3 2 4 2 6 7 3 2 4 4 5 6 7 11 9 16 11 14 11 11 13 15 14 13 11 12 13 11 12 14 10 8 6 5 6 5 4 4 4 4 4 4
3 3 7 1 3 7 2 2 1 5 4 6 3 7 6 11 16 20 25 26 24 20 18 16 16 14 13 9 10 11 10 11 8 8 7 6 5 4 4 4 3 4 3 4
0 5 3 7 7 2 4 6 6 6 5 2 4 8 8 6 7 19 12 14 17 18 16 14 13 11 10 11 10 10 9 10 10 8 6 6 6 6 4 1 2 2 4 3
4 2 4 5 5 4 4 3 2 4 4 6 5 8 6 5 4 7 9 8 11 14 15 11 12 13 9 9 9 9 10 10 9 9 8 6 6 7 6 3 2 2 3 5
4 3 6 4 6 1 5 5 3 4 4 5 5 7 9 6 2 4 7 7 7 8 11 9 10 11 9 7 8 8 8 8 8 8 9 9 7 6 5 2 3 1 2 5
4 5 4 5 3 7 8 4 7 1 3 4 5 4 5 7 5 4 3 6 10 11 12 10 9 9 10 11 8 7 5 4 5 8 10 10 7 6 5 4 3 3 3 4
3 1 2 1 3 4 1 8 3 4 4 1 4 2 4 5 5 8 6 5 6 7 9 7 6 9 9 7 7 5 6 7 5 4 7 6 5 5 4 3 5 5 5 5
3 3 2 5 6 5 4 0 3 1 4 3 2 4 5 6 10 7 5 6 7 6 6 7 3 5 7 8 9 9 6 5 6 6 5 6 7 7 5 5 6 7 7 5
4 3 2 2 0 5 4 1 5 2 3 4 4 2 6 10 10 11 9 8 9 7 6 5 5 5 5 2 5 8 8 7 5 6 7 8 8 7 6 6 7 6 5 5
2 5 3 3 3 3 4 6 5 5 6 3 5 5 9 12 11 12 9 9 9 8 6 6 6 4 3 4 3 6 5 5 6 6 6 6 7 8 8 9 8 5 5 5
5 6 5 3 2 4 4 2 4 6 6 4 5 10 11 2 8 2 5 8 9 8 7 6 7 4 6 5 3 5 6 6 5 4 2 4 5 4 6 5 4 1 6 6
2 4 4 2 2 6 5 1 3 4 8 5 9 4 5 6 4 9 7 9 6 6 9 8 7 6 6 5 5 6 9 7 4 5 6 5 5 7 7 5 3 5 6 7
4 5 2 2 1 3 1 1 5 5 2 4 2 1 2 8 11 8 8 6 5 6 9 8 8 7 5 5 7 8 10 6 6 7 10 9 9 5 4 4 3 5 7 6
1 6 5 8 7 5 4 5 3 4 4 3 5 6 3 12 10 6 6 5 4 5 3 6 8 8 6 7 7 9 5 6 7 9 10 8 8 5 6 5 3 5 5 5
2 3 3 2 3 3 4 4 3 4 3 4 4 6 5 6 7 5 5 7 4 3 4 5 6 8 8 7 8 6 4 5 8 8 8 6 4 4 5 5 4 3 3 3
4 5 5 1 3 4 3 3 3 4 7 6 7 5 5 6 6 5 5 6 4 4 5 7 4 5 5 5 6 4 4 5 7 7 6 6 5 5 5 5 4 3 4 3
5 7 5 7 9 6 5 3 0 5 6 8 8 7 6 4 6 7 6 4 3 5 4 5 4 5 4 5 5 4 3 5 6 5 4 3 3 3 3 3 2 7 6 4
Wind_Direction
48 93 207 135 199 160 123 106 119 154 179 132 112 162 315 341 339 192 175 180 186 190 186 171 178 179 157 152 156 173 155 155 143 140 146 118 163 143 172 239 163 172 225 210
34 255 210 176 178 153 115 122 129 31 110 88 170 277 247 314 290 316 256 186 189 174 167 175 177 179 182 172 173 183 167 169 162 154 151 142 145 137 124 172 184 163 204 186
139 223 102 157 177 126 155 177 190 151 140 48 117 309 224 217 269 289 273 222 185 171 177 182 177 185 182 186 182 192 174 181 172 147 116 86 77 67 107 159 194 123 165 189
196 272 201 160 218 153 201 191 143 140 136 192 225 221 212 225 255 268 255 214 188 181 185 180 180 186 186 197 175 183 178 180 178 162 146 153 160 154 197 171 172 167 171 170
250 241 214 194 216 163 235 109 115 86 60 92 190 129 240 154 240 225 234 221 192 183 181 188 188 188 190 178 177 182 176 173 177 183 167 150 157 154 141 145 176 182 232 205
238 221 185 208 15 176 130 82 53 52 54 287 179 189 202 188 224 231 209 203 196 186 190 190 187 173 180 172 169 176 177 188 181 185 177 167 173 170 163 183 197 207 236 278
314 247 57 125 77 19 86 76 21 350 329 233 151 163 245 198 189 214 202 188 188 186 182 181 172 179 180 175 178 176 183 194 192 183 183 188 192 182 185 186 193 189 204 224
215 319 168 176 167 172 158 141 159 206 194 248 275 232 247 213 198 198 190 183 172 180 176 182 183 182 188 186 179 180 184 197 192 187 187 197 206 190 200 198 197 208 205 221
167 277 220 199 150 148 210 206 156 103 352 98 226 280 290 143 141 159 163 159 175 170 175 181 180 190 187 186 188 181 183 195 187 193 175 184 195 193 202 213 203 218 184 222
188 301 252 246 104 338 153 168 112 20 160 241 272 269 234 212 185 173 156 169 182 164 179 182 189 190 189 195 189 183 182 190 192 178 179 187 198 209 201 191 213 205 210 192
143 123 295 2 178 186 124 164 68 129 161 163 288 267 219 206 180 183 179 182 189 192 180 184 195 191 185 187 187 186 179 175 178 187 178 173 185 201 192 223 223 207 202 206
35 145 268 245 292 229 196 193 150 134 243 244 153 274 312 193 191 186 204 200 208 201 190 171 180 164 168 186 187 190 181 184 179 174 177 182 162 167 172 184 359 278 238 208
215 359 8 354 344 41 34 6 91 102 84 201 145 267 359 30 153 167 158 164 180 188 179 151 162 172 172 190 192 188 184 182 168 163 161 165 171 155 151 128 26 355 289 262
116 128 148 204 236 345 326 342 348 147 131 180 219 310 345 349 289 153 145 140 139 135 155 155 160 168 155 165 176 178 179 168 166 170 167 172 169 160 152 77 19 350 270 266
104 189 171 175 270 85 254 352 356 71 100 177 283 314 323 315 324 323 142 129 137 153 158 165 163 161 171 175 167 151 160 172 193 190 176 175 173 152 154 149 246 256 229 235
342 170 283 63 96 268 343 30 344 15 20 2 314 6 321 358 57 56 70 111 145 163 192 179 161 170 171 181 153 149 173 163 170 182 176 162 145 153 205 177 191 214 225 236
86 91 29 169 299 36 336 280 56 226 359 309 335 238 289 47 63 51 74 107 113 80 77 79 88 125 163 165 167 176 173 152 180 178 160 148 158 169 191 206 190 212 197 196
116 102 67 259 49 183 281 173 152 228 252 311 260 214 105 100 82 62 51 77 82 82 85 74 77 88 65 81 116 136 151 164 168 167 169 169 177 173 178 196 197 196 179 169
101 115 99 197 180 272 163 212 155 147 277 185 242 154 143 117 93 63 61 61 68 65 49 58 70 68 89 84 137 149 145 161 164 191 180 186 185 177 186 197 189 179 148 131
83 91 127 127 94 215 247 181 94 91 294 179 212 179 168 269 96 134 115 102 91 88 71 58 43 45 58 33 264 171 155 165 167 125 196 205 198 152 131 139 142 234 123 116
22 30 133 128 197 281 251 212 86 113 243 152 205 202 169 164 176 150 141 106 103 103 96 84 65 44 15 33 62 78 89 70 87 107 84 58 53 117 134 141 160 141 112 119
180 127 162 102 133 283 143 117 172 219 354 145 175 290 85 93 103 86 70 81 100 96 99 94 89 66 26 33 78 76 67 57 68 81 90 81 65 333 88 114 91 128 137 132
247 175 179 168 217 249 264 224 266 198 144 175 126 68 79 114 108 107 115 115 103 80 78 97 92 80 50 48 59 75 48 65 66 72 67 76 72 40 31 58 86 108 124 133
209 163 124 84 295 285 322 293 211 145 127 142 111 112 107 113 106 131 123 110 92 88 117 78 92 90 79 58 67 69 71 81 82 84 87 93 84 61 46 24 38 51 91 126
202 140 142 349 298 327 309 297 329 85 98 92 112 123 125 128 127 133 119 105 149 132 70 75 87 91 107 112 93 79 75 76 76 78 81 82 83 79 76 60 12 51 38 358
189 174 154 209 202 164 204 189 65 136 128 142 138 142 134 154 144 133 114 109 93 99 89 94 75 102 104 80 81 84 68 94 104 90 78 78 84 79 91 108 97 59 77 58